STARLINK-36449, 67308

Orbit data source: Space-Track

STARLINK-36449, 67308 is a payload satellite owned by SpaceX/Seattle (US) in LEO that was launched on Sun, 04 Jan 2026 UTC via an FALCON 9 launch vehicle from the Air Force Eastern Test Range (AFETR). Payload-class satellites include a variety of spacecraft equipped with specific instruments for various scientific and technological missions. These include communications satellites like Starlink; space stations such as the ISS; scientific satellites like the Hubble; Earth observation satellites from companies like Planet Labs, Umbra, and HawkEye 360; GPS; miniature CubeSats for education and research; and military/defense satellites.

Loading next visibility...
Identifier
67308, 2026-002D
Orbit
LEO
Country
Flag of USUS
Related business
Manufacturer
SpaceX/Seattle
Mission
Operational Commercial Communications
Bus & Motor
STARLINK V2MO, Unknown motor
Mass
575 kg wet, ~530 kg dry
Launch date (UTC)
2026-01-04 (5 months ago)
Launch vehicle
FALCON 9
Launch site
Air Force Eastern Test Range (AFETR)
Object type
Payload
Rocket body
Debris
Shape & HBR
Box + 2 Pan, 17.7 m
Radar Cross Section
36.964 m², Large (>1 m²)

Expand to show TLE details & history
Last TLE update: 16 hours ago

TLE from 16 hours ago
0 STARLINK-36449
1 67308U 26002D   26171.18088707  .00016495  00000-0  60742-3 0  9997
2 67308  43.0002 106.4491 0001415 256.6815 103.3879 15.27589758 26819
Epoch: 2026-06-20T04:20Z
TLE epoch observation values (Epoch: 2026-06-20T04:20:28.642Z)
Latitude
-0.00003°
Longitude
132.93053°
Altitude
483.02 km
Speed
7.626 km/s
True Right ascension
07h 05m 47s
True Declination
0° 00' 00"
Sunlit
Object was in daylight at epoch
Visualization orbit readout
Latitude
Unknown
Longitude
Unknown
Altitude
Unknown
Speed
Unknown
Apparent Right ascension
Unknown
Apparent Declination
Unknown
Sunlit
N/A
Visualization observer readout
Local Sidereal Time
07:20:32
Azimuth
Unknown
Elevation
Unknown
Doppler factor
Unknown
Orbital elements
Apogee altitude
485.936 km
Perigee altitude
483.994 km
Semi-major axis
6,863.102 km
Eccentricity
0.00014
Inclination
43.0002°
RAAN
106.4491°
Arg. of periapsis
256.6815°
True anomaly
103.40367°
Mean anomaly
103.3879°
Eccentric anomaly
103.39579°
Mean motion
3.81735 °/min
Orbital period
94.31 mins
BSTAR
0.00060742
Loading maneuver chart data...
Computing Atmospheric mass density...
Loading historical data...
Loading historical data...
Loading historical data...
Loading historical data...
Loading historical data...
Loading historical data...
Loading historical data...

Documentation

Showing up to 5 results
|